weather.gov     
National Weather Service

Terminal Aerodrome Forecast
NWS Homepage
This page is being discontinued on March 12, 2014.
The same data is available at this site. Please update your bookmarks.
Thank you, and we apologize for the inconvenience.
Please send an email to SR-SRH.Webmaster@noaa.gov with any concerns.


Current Version
Previous Version:    01  02  03  04  05  06  07  08  09  10  11  12  13  14  15  16  17  18  19  20  21  22  23  
[Printable]
034
FTUS44 KCRP 192300
TAFVCT
TAF
KVCT 192320Z 2000/2024 17018G25KT P6SM SKC
     FM200200 15011KT P6SM FEW025 SCT250
     FM200900 VRB04KT 6SM BR SCT012
      TEMPO 2010/2014 BKN012
     FM201400 17012KT P6SM SCT025 SCT150
     FM201600 17015G22KT P6SM SCT030=


U.S. Dept. of Commerce
NOAA National Weather Service
1325 East West Highway
Silver Spring, MD 20910
E-mail: w-nws.webmaster@noaa.gov
Page last modified: May 16, 2007
NATIONAL WEATHER SERVICE: for Safety, for Work, for Fun - FOR LIFE